Regional Weather Roundup
Issued by NWS

Home | Current Version | Previous Version | Text Only | Print | Product List | Glossary Off
Versions: 1 2 3 4 5 6 7 8 9 10 11 12 13 14 15 16 17 18 19 20 21 22 23 24 25 26 27 28 29 30 31 32 33 34 35 36 37 38 39 40 41 42 43 44 45 46 47 48 49 50

605
ASUS43 KMPX 220810
RWRMN
WEATHER ROUNDUP FOR MINNESOTA
NATIONAL WEATHER SERVICE TWIN CITIES/CHANHASSEN MN
300 AM CDT TUE AUG 22 2017


NOTE: "FAIR" INDICATES FEW OR NO CLOUDS BELOW 12,000 FEET WITH NO
SIGNIFICANT WEATHER AND/OR OBSTRUCTIONS TO VISIBILITY. N/A MEANS
CURRENT SKY AND/OR WEATHER CONDITIONS ARE NOT AVAILABLE.

MNZ060>063-068>070-220900-
   Twin Cities Metro

CITY           SKY/WX    TMP DP  RH WIND       PRES   REMARKS
TWIN CITIES    CLEAR     65  60  84 NW7       29.89S
ST PAUL        CLEAR     65  62  90 NW10      29.89R
CRYSTAL        CLEAR     63  58  83 NW8       29.88R
BLAINE         CLEAR     64  63  94 NW7       29.89S
LAKEVILLE      PTCLDY    61  61 100 W5        29.91R
EDEN PRAIRIE   CLEAR     66  60  81 NW9       29.89R
SOUTH ST PAUL  PTCLDY    66  62  89 NW5       29.89R
LAKE ELMO      FAIR      64  61  88 NW8       29.89S
$$
MNZ001>005-007-008-013>017-022>024-027-028-220900-
   Northwest Minnesota

CITY           SKY/WX    TMP DP  RH WIND       PRES   REMARKS
BEMIDJI        CLEAR     52  50  93 W9        29.97R
HALLOCK        CLEAR     48  45  87 W6        29.96F
ROSEAU         CLEAR     52  46  82 W9        29.95S
WARROAD        CLEAR     48  45  87 SW5       29.94S
THIEF RVR FALL CLEAR     50  48  93 W8        29.99F
CROOKSTON      CLEAR     48  48 100 NW3       30.00S
FOSSTON        CLEAR     48  48 100 W3        30.00S
DETROIT LAKES  CLEAR     52  50  93 NW7       30.02R
MOORHEAD       PTCLDY    52  48  87 W5        30.03R
PARK RAPIDS    CLEAR     53  50  89 NW9       29.97R
MAHNOMEN       FAIR      49  49  97 NW5       30.00R
$$
MNZ006-009>011-018-025>026-220900-
   North Central Minnesota

CITY           SKY/WX    TMP DP  RH WIND       PRES   REMARKS
BAUDETTE       CLEAR     50  50 100 W6        29.92R
FLAG ISLAND      N/A     52  48  87 W3        29.90S
INTL FALLS     MOCLDY    50  49  96 W5        29.88S
WASKISH        CLEAR     55  52  88 NW12G17   29.94R
BIG FORK       CLEAR     52  52 100 CALM      29.91R
LONGVILLE      CLEAR     57  54  88 NW5       29.93R
GRAND RAPIDS   CLEAR     56  52  86 NW12      29.92R
CRANE LAKE     MOCLDY    52  52 100 CALM      29.88R
ORR            MOCLDY    54  52  94 NW7       29.85S
COOK           MOCLDY    54  52  94 W3        29.88S
WALKER         FAIR      53  50  92 NW7       29.96R
$$
MNZ012-019>021-037-220900-
   Northeast Minnesota

CITY           SKY/WX    TMP DP  RH WIND       PRES   REMARKS
DULUTH         PTCLDY    54  54 100 NW6       29.85S
ELY            MOCLDY    52  52 100 CALM      29.85S
HIBBING        CLEAR     53  51  93 NW10      29.88R
EVELETH        PTCLDY    58  52  83 NW8       29.87S
DULUTH HARBOR  PTCLDY    61  57  88 NW3       29.85S
TWO HARBORS    PTCLDY    57  54  88 CALM      29.82F
GRAND MARAIS     N/A     58  55  90 NW6       29.78F
G MARAIS ARPRT CLOUDY    52  48  87 CALM      29.82F
$$
MNZ029>031-032-039>041-046>048-054>057-064-220900-
   West Central Minnesota

CITY           SKY/WX    TMP DP  RH WIND       PRES   REMARKS
FERGUS FALLS   CLEAR     52  52 100 N6        30.02R
WHEATON        CLEAR     55  50  82 NW7       30.05R
MORRIS         CLEAR     55  54  94 NW10      30.01R
ALEXANDRIA     CLEAR     58  54  86 NW12      30.00R
ELBOW LAKE     FAIR      55  54  94 W9        30.02R
WADENA         CLEAR     54  54 100 NW6       29.98R
GLENWOOD       CLEAR     57  54  88 NW9       29.99R
APPLETON       CLEAR     57  54  88 NW9       30.01R
BENSON         CLEAR     55  52  88 N7        30.02R
ORTONVILLE     CLEAR     57  52  82 MISG      30.03R
MADISON        CLEAR     57  57 100 NW6       30.03R
WILLMAR        FAIR      59  55  88 NW10      30.00R
$$
MNZ033>034-036-042>043-049>051-058-059-220900-
   Central Minnesota

CITY           SKY/WX    TMP DP  RH WIND       PRES   REMARKS
ST CLOUD       CLEAR     61  57  87 NW14G22   29.93R
SAUK CENTRE    FAIR      58  55  88 NW9       29.97R
PAYNESVILLE    CLEAR     58  57  94 NW7       29.97R
AITKIN         CLEAR     55  54  94 NW6       29.90S
PINE RIVER     CLEAR     54  50  87 NW5       29.98R
BRAINERD       CLEAR     57  55  93 NW10      29.94R
STAPLES        CLEAR     54  52  94 NW7       29.97R
LONG PRAIRIE   FAIR      55  52  88 W8        29.97R
LITTLE FALLS   CLEAR     59  52  77 NW6       29.95R
LITCHFIELD     CLEAR     63  61  94 NW9G16    29.96R
BUFFALO        CLEAR     62  58  85 W7        29.93R
MAPLE LAKE     CLEAR     62  60  93 NW7       29.93S
HUTCHINSON     CLEAR     60  59  96 W5        29.96R
$$
MNZ037-044-045-052-053-220900-
   East Central Minnesota

CITY           SKY/WX    TMP DP  RH WIND       PRES   REMARKS
PRINCETON      CLEAR     61  59  94 W5        29.91R
MORA           CLEAR     57  55  94 NW5       29.91R
CAMBRIDGE      CLEAR     63  59  88 NW5       29.90R
RUSH CITY      MOCLDY    60  58  92 CALM      29.89R
MOOSE LAKE     CLEAR     55  54  94 W5        29.86S
HINCKLEY       FAIR      59  59 100 NW3       29.89R
CLOQUET        PTCLDY    55  54  94 W5        29.87S
MCGREGOR       CLEAR     55  54  94 W5        29.90S
$$
MNZ071>073-080-081-089-090-097-098-220900-
   Southwest Minnesota

CITY           SKY/WX    TMP DP  RH WIND       PRES   REMARKS
MONTEVIDEO     CLEAR     55  55 100 N8        30.01R
GRANITE FALLS  CLEAR     59  55  88 W9        30.02R
CANBY          CLEAR     58  53  83 CALM      30.05R
MARSHALL       CLEAR     57  54  89 NW10      30.03R
REDWOOD FALLS  CLEAR     61  55  81 NW12      29.98R
OLIVIA         CLEAR     59  55  88 NW8       29.97R
PIPESTONE      CLEAR     61  54  77 N8        30.06R
WINDOM         CLEAR     63  55  77 NW14G22   30.00R
WORTHINGTON    CLEAR     61  57  87 NW13      30.04R
JACKSON        CLEAR     61  55  82 NW14      30.00R
TRACY          CLEAR     60  57  90 NW9       30.03R
SLAYTON        CLEAR     60  53  78 NW13      30.04R
$$
MNZ065>067-074>077-082>085-091>093-220900-
   South Central Minnesota

CITY           SKY/WX    TMP DP  RH WIND       PRES   REMARKS
MANKATO        CLEAR     62  60  93 W7        29.95R
NEW ULM        CLEAR     61  57  88 NW14      29.96R
ST JAMES       CLEAR     61  57  88 NW8       29.98S
FAIRMONT       CLEAR     62  59  90 NW7       29.98R
GLENCOE        CLEAR     63  61  94 W9        29.94R
FARIBAULT      CLEAR     63  61  94 W10       29.92S
OWATONNA       CLEAR     63  61  94 W9        29.92F
WASECA         CLEAR     59  59 100 W7        29.95R
ALBERT LEA     CLEAR     66  64  94 W5        29.94F
$$
MNZ078>079-086>088-094>096-220900-
   Southeast Minnesota

CITY           SKY/WX    TMP DP  RH WIND       PRES   REMARKS
ROCHESTER      CLOUDY    63  62  97 W13       29.91S
RED WING       CLOUDY    66  63  88 W7        29.86S
STANTON        PTCLDY    64  61  90 W6        29.89S
DODGE CENTER   CLEAR     63  61  94 W8        29.91F
WINONA         CLOUDY    70  64  83 W7        29.86S
AUSTIN         PTCLDY    63  61  94 W8        29.92F
PRESTON        PTCLDY    62  60  93 W9        29.91S
$$
ABBREVIATIONS USED IN REMARKS
   TC - TEMPERATURES IN CELSIUS
  WCI - WIND CHILL INDEX
   HX - HEAT INDEX
  VSB - VISIBILITY
$$




USA.gov is the U.S. government's official web portal to all federal, state and local government web resources and services.